| time (UTC) | temp F | wind direction | speed knots | gust knots | rain 1hr in | rain 24hr in | rain mn in | humidity % | barometer mb |
| 20260506230150 | 58 | 207 | 0.9 | 2.6 | 0.00 | 0.09 | 0.09 | 96 | 1007.5 |
| 20260506220150 | 58 | 205 | 0.9 | 4.3 | 0.00 | 0.09 | 0.09 | 95 | 1007.4 |
| 20260506210150 | 59 | 205 | 1.7 | 5.2 | 0.01 | 0.09 | 0.09 | 95 | 1007.3 |
| 20260506200150 | 59 | 209 | 1.7 | 5.2 | 0.00 | 0.08 | 0.08 | 95 | 1007.8 |
| 20260506190153 | 59 | 197 | 2.6 | 7.0 | 0.04 | 0.08 | 0.08 | 95 | 1008.3 |
| 20260506180150 | 59 | 199 | 3.5 | 8.7 | 0.03 | 0.03 | 0.03 | 93 | 1008.4 |
| 20260506170150 | 60 | 210 | 3.5 | 8.7 | 0.00 | 0.00 | 0.00 | 87 | 1009.8 |
| 20260506160150 | 64 | 194 | 4.3 | 14.8 | 0.00 | 0.00 | 0.00 | 75 | 1010.2 |
| 20260506150150 | 64 | 211 | 4.3 | 10.4 | 0.00 | 0.00 | 0.00 | 75 | 1010.2 |
| 20260506130150 | 63 | 198 | 2.6 | 8.7 | 0.00 | 0.00 | 0.00 | 79 | 1010.4 |
| 20260506120150 | 60 | 218 | 2.6 | 7.0 | 0.00 | 0.00 | 0.00 | 86 | 1010.9 |
| 20260506110150 | 58 | 218 | 2.6 | 6.1 | 0.00 | 0.00 | 0.00 | 90 | 1011.0 |
| 20260506100150 | 57 | 202 | 1.7 | 5.2 | 0.00 | 0.00 | 0.00 | 91 | 1010.8 |
| 20260506080150 | 58 | 204 | 2.6 | 6.1 | 0.00 | 0.00 | 0.00 | 87 | 1011.0 |
| 20260506070150 | 59 | 195 | 1.7 | 4.3 | 0.00 | 0.00 | 0.00 | 85 | 1011.1 |
| 20260506060152 | 60 | 195 | 1.7 | 6.1 | 0.00 | 0.00 | 0.00 | 82 | 1011.0 |
| 20260506050150 | 61 | 198 | 1.7 | 3.5 | 0.00 | 0.00 | 0.00 | 79 | 1011.2 |
| 20260506040149 | 63 | 199 | 1.7 | 7.0 | 0.00 | 0.00 | 0.00 | 74 | 1011.3 |
| 20260506030150 | 64 | 200 | 3.5 | 10.4 | 0.00 | 0.00 | 0.00 | 68 | 1011.2 |
| 20260506020150 | 64 | 201 | 3.5 | 7.8 | 0.00 | 0.00 | 0.00 | 68 | 1011.0 |
| 20260506010150 | 65 | 203 | 2.6 | 5.2 | 0.00 | 0.00 | 0.00 | 65 | 1010.3 |
| 20260506003149 | 65 | 222 | 5.2 | 14.8 | 0.00 | 0.00 | 0.00 | 63 | 1010.0 |
| 20260506000150 | 66 | 219 | 4.3 | 15.6 | 0.00 | 0.00 | 0.00 | 61 | 1009.6 |